Printer-friendly version

IAU Minor Planet Center

Minor Planet Center

MPEC 2000-S41: 2000 SE8

The following Minor Planet Electronic Circular may be linked-to from your own Web pages, but must not otherwise be redistributed electronically.


Read MPEC 2000-S40 Read MPEC 2000-S42


M.P.E.C. 2000-S41                                Issued 2000 Sept. 24, 21:29 UT

     The Minor Planet Electronic Circulars contain information on unusual
         minor planets and routine data on comets.  They are published
   on behalf of Commission 20 of the International Astronomical Union by the
          Minor Planet Center, Smithsonian Astrophysical Observatory,
                          Cambridge, MA 02138, U.S.A.

             Prepared using the Tamkin Foundation Computer Network

                              MPC@CFA.HARVARD.EDU
          URL http://cfa-www.harvard.edu/iau/mpc.html  ISSN 1523-6714

                                   2000 SE8

Observations:
     K00S08E* C2000 09 20.55468 01 21 32.21 -05 00 38.8          18.5        608
     K00S08E  C2000 09 20.56540 01 21 36.73 -04 59 28.1          18.6        608
     K00S08E  C2000 09 20.57607 01 21 41.26 -04 58 17.3          18.7        608
     K00S08E 1C2000 09 20.77172701 23 11.54 -04 34 56.1          18.8        413
     K00S08E 1C2000 09 20.77284701 23 12.03 -04 34 49.0          19.0        413
     K00S08E 1C2000 09 20.77395801 23 12.50 -04 34 41.7          19.3        413
     K00S08E  C2000 09 21.29862 01 27 14.84 -03 44 02.0          17.5 R      853
     K00S08E  C2000 09 21.29926 01 27 15.09 -03 43 58.4          17.7 R      853
     K00S08E  C2000 09 21.30024 01 27 15.45 -03 43 52.6          17.6 R      853
     K00S08E  C2000 09 22.94788 01 37 26.54 -01 20 54.4          19.1 V      151
     K00S08E  C2000 09 22.94987 01 37 27.21 -01 20 43.8          18.7 V      151
     K00S08E  C2000 09 22.95279 01 37 27.89 -01 20 32.3          18.8 V      151
     K00S08E  C2000 09 22.95442 01 37 28.55 -01 20 21.8          19.0 V      151
     K00S08E  C2000 09 22.95929 01 37 29.89 -01 20 01.5          18.4 V      151
     K00S08E  C2000 09 22.96038 01 37 30.14 -01 19 57.2          19.0 V      151
     K00S08E  C2000 09 24.11564 01 43 07.20 +00 02 17.0                      557
     K00S08E  C2000 09 24.11676 01 43 07.51 +00 02 20.5                      557
     K00S08E  C2000 09 24.11788 01 43 07.80 +00 02 26.2          19.0 V      557

Observer details:
151 Eschenberg Observatory, Winterthur.  Observer M. Griesser.  0.40-m f/5.8
    Hypergraph.
413 Siding Spring.  Observer R. H. McNaught.  1.0-m f/8 reflector + CCD.
557 Ondrejov.  Observers P. Pravec,  L. Sarounova.  0.65-m f/3.6 reflector
    + CCD.
608 Haleakala-NEAT/MSSS.  Observers E. F. Helin, S. Pravdo, K. Lawrence,
    P. Kervin, D. Talent, R. Maeda, P. Tanner.  1.2-m reflector + CCD.
853 Biosphere 2 Observatory.  Observer G. J. Garradd.  0.5-m f/8.1 reflector
    + CCD.

Orbital elements:
2000 SE8
Epoch 2000 Sept. 13.0 TT = JDT 2451800.5                Spahr
M   3.40020              (2000.0)            P               Q
n   0.24764737     Peri.  234.79939     +0.89565673     +0.44460333
a   2.5113866      Node    98.80028     -0.40425168     +0.82440573
e   0.5950776      Incl.    0.65316     -0.18541737     +0.35026144
P   3.98           H   23.4           G   0.15
From 18 observations 2000 Sept. 20-24.

Ephemeris:
2000 SE8                 a,e,i = 2.51, 0.60, 1                   q = 1.0169
Date    TT    R. A. (2000) Decl.     Delta      r     Elong.  Phase     V
2000 09 23    01 37.66   -01 15.3    0.065    1.063   155.8    22.8    18.7
2000 10 03    02 06.21   +06 03.8    0.114    1.107   157.7    20.0    19.9
2000 10 13    02 13.45   +08 47.4    0.170    1.163   165.2    12.7    20.6
2000 10 23    02 14.38   +10 06.4    0.233    1.227   174.2     4.7    21.1
2000 11 02    02 13.84   +10 53.9    0.306    1.297   174.5     4.2    21.8

Timothy B. Spahr             (C) Copyright 2000 MPC           M.P.E.C. 2000-S41

Read MPEC 2000-S40 Read MPEC 2000-S42


Our Web policy. Index to the CBAT/MPC/ICQ pages.


Valid HTML 4.01!